Zurück zum Katalog

SL-16 R/B

AktivLEO
NORAD 24298·ROCKET BODY·🇷🇺 Russia

Gestartet Sep 4, 1996 von Baikonur Cosmodrome

Loading…

Nächste Überflüge (nächste 24 Stunden)

TLE

AktuellSource: Space-Track

Epoche: Sep 14, 2026, 14:48 UTC

1 24298U 96051B   26257.61716814  .00000168  00000-0  11714-3 0  9994
2 24298  70.7683 135.4073 0018961 222.1298 137.8366 14.12479968548329

Verfolge SL-16 R/B in Echtzeit mit AllMySat

Download on the App Store